FENGYUN 1C DEB, 30110

Orbit data source: Space-Track

FENGYUN 1C DEB, 30110 is space debris in SSO originally from a launch on Mon, 10 May 1999 UTC launched from the Taiyaun Space Center, China (TSC). Fengyun 1C debris stems from the Chinese weather satellite Fengyun-1C, which was intentionally destroyed by a Chinese anti-satellite missile in 2007. This event dramatically increased the amount of space debris, with thousands of trackable fragments posing hazards to satellites and human spaceflight. The Fengyun 1C debris cloud has become a focal point in discussions about space sustainability and the need for international regulations to prevent the creation of new debris.

Loading next visibility...
Identifier
30110, 1999-025RP
Orbit
SSO
Country
Flag of CNCN / PRC
Related business
Manufacturer
Unknown
Mission
Spacecraft
Bus & Motor
Unknown
Mass
Unknown
Launch date (UTC)
1999-05-10 (27 years ago)
Launch vehicle
Unknown
Launch site
Taiyaun Space Center, China (TSC)
Object type
Payload
Rocket body
Debris
Shape & HBR
Unknown shape, 0.1 m
Radar Cross Section
Medium (>0.1 m² and <1 m²)

Expand to show TLE details & history
Last TLE update: 8 hours ago

TLE from 8 hours ago
0 FENGYUN 1C DEB
1 30110U 99025RP  26170.01830095  .00000228  00000-0  30218-3 0  9991
2 30110  98.9125 266.0746 0267236 227.6455 130.1777 13.56324266960671
Epoch: 2026-06-19T00:26Z
TLE epoch observation values (Epoch: 2026-06-19T00:26:21.202Z)
Latitude
-0.00002°
Longitude
-7.76704°
Altitude
1,182.996 km
Speed
7.198 km/s
True Right ascension
17h 44m 17s
True Declination
0° 00' 00"
Sunlit
Object was in full shadow at epoch
Visualization orbit readout
Latitude
Unknown
Longitude
Unknown
Altitude
Unknown
Speed
Unknown
Apparent Right ascension
Unknown
Apparent Declination
Unknown
Sunlit
N/A
Visualization observer readout
Local Sidereal Time
19:17:33
Azimuth
Unknown
Elevation
Unknown
Doppler factor
Unknown
Orbital elements
Apogee altitude
1,244.74 km
Perigee altitude
847.923 km
Semi-major axis
7,424.469 km
Eccentricity
0.02672
Inclination
98.9125°
RAAN
266.0746°
Arg. of periapsis
227.6455°
True anomaly
132.46743°
Mean anomaly
130.1777°
Eccentric anomaly
131.32751°
Mean motion
3.3927 °/min
Orbital period
106.11 mins
BSTAR
0.00030218
Loading maneuver chart data...
Computing Atmospheric mass density...

Documentation

Showing up to 5 results
|